This is the latest recevied weather packets stored in our database for station/object WW3TRG. If no packets are shown the sender has not sent any weather packets the latest 10 day(s).
| Time | Temp. | Humidity | Pressure | Rain* | Wind** | Luminosity | Snow |
|---|---|---|---|---|---|---|---|
| 1777822058 | 10.56° C | 47% | 1013 hPa | 0 mm | - | 240 W/m² | - |
| 1777821756 | 10° C | 46% | 1013 hPa | 0 mm | - | 269 W/m² | - |
| 1777821453 | 10° C | 53% | 1013.1 hPa | 0 mm | - | 843 W/m² | - |
| 1777821150 | 9.44° C | 52% | 1013.2 hPa | 0 mm | - | 377 W/m² | - |
| 1777820847 | 9.44° C | 51% | 1013.1 hPa | 0 mm | - | 153 W/m² | - |
| 1777820543 | 8.89° C | 50% | 1013.2 hPa | 0 mm | - | 155 W/m² | - |
| 1777820240 | 9.44° C | 52% | 1013.1 hPa | 0 mm | - | 834 W/m² | - |
| 1777819937 | 8.89° C | 52% | 1013.2 hPa | 0 mm | - | 168 W/m² | - |
| 1777819635 | 8.89° C | 54% | 1013.4 hPa | 0 mm | - | 160 W/m² | - |
| 1777819333 | 8.89° C | 53% | 1013.2 hPa | 0 mm | - | 89 W/m² | - |
| 1777819029 | 9.44° C | 53% | 1013.4 hPa | 0 mm | - | 116 W/m² | - |
| 1777818726 | 10.56° C | 49% | 1013.3 hPa | 0 mm | - | 821 W/m² | - |
| 1777818423 | 10° C | 51% | 1013.5 hPa | 0 mm | - | 761 W/m² | - |
| 1777818119 | 10° C | 56% | 1013.5 hPa | 0 mm | - | 710 W/m² | - |
| 1777817816 | 7.78° C | 57% | 1013.6 hPa | 0 mm | - | 539 W/m² | - |
| 1777817513 | 7.78° C | 57% | 1013.6 hPa | 0 mm | - | 77 W/m² | - |
| 1777817209 | 8.33° C | 57% | 1013.5 hPa | 0 mm | - | 110 W/m² | - |
| 1777816907 | 8.89° C | 56% | 1013.6 hPa | 0 mm | - | 179 W/m² | - |
| 1777816604 | 9.44° C | 54% | 1013.3 hPa | 0 mm | - | 199 W/m² | - |
| 1777816301 | 9.44° C | 54% | 1013.6 hPa | 0 mm | - | 602 W/m² | - |
| 1777815999 | 10° C | 53% | 1013.8 hPa | 0 mm | - | 590 W/m² | - |
| 1777815696 | 8.89° C | 57% | 1013.6 hPa | 0 mm | - | 538 W/m² | - |
| 1777815393 | 8.33° C | 58% | 1013.6 hPa | 0 mm | - | 93 W/m² | - |
| 1777815090 | 8.33° C | 57% | 1013.3 hPa | 0 mm | - | 473 W/m² | - |
| 1777814786 | 8.89° C | 56% | 1013.5 hPa | 0 mm | - | 428 W/m² | - |
* Rain latest hour (hover to see other rain measurements)
** Current wind speed in m/s (hover to see current wind gust speed)